This demonstration page uses our WeatherBlox Daily Observations layout. Learn more.

39.92423, -83.80882

Hourly Observations for May 20, 2015

Temp ( °F °C ) Dew Point ( °F °C ) Humidity (%) Winds ( mph kmh ) Pressure ( in mb ) Visibility ( mi km ) Precip ( " mm )
12:56 am 00:56 Cloudy 50 10 40 4.4 68 68 N 9 15 30.15 1021 7 11.26538 0 0
1:56 am 01:56 Cloudy 49 9.4 40 4.4 71 71 NW 9 15 30.15 1021 7 11.26538 0 0
2:56 am 02:56 Cloudy 48 8.8 38 3.3 69 69 NW 10 17 30.16 1021 7 11.26538 0 0
3:56 am 03:56 Cloudy 46 7.7 37 2.7 71 71 NW 8 13 30.16 1021 7 11.26538 0 0
4:41 am 04:41 Partly Cloudy 45 7 37 3 76 76 NW 8 13 30.18 1022 7 11.26538 0 0
4:56 am 04:56 Clear 43 6.1 37 2.7 79 79 NNW 9 15 30.15 1021 7 11.26538 0 0
5:56 am 05:56 Clear 41 5 37 2.7 85 85 N 7 11 30.15 1021 7 11.26538 0 0
6:56 am 06:56 Hazy 41 5 36 2.2 82 82 N 8 13 30.16 1021 5 8.0467 0 0
7:56 am 07:56 Hazy 44 6.6 36 2.2 74 74 N 10 17 30.19 1022 6 9.65604 0 0
8:56 am 08:56 Hazy 47 8.3 37 2.7 68 68 N 10 17 30.19 1022 6 9.65604 0 0
9:56 am 09:56 Hazy 51 10.5 38 3.3 61 61 NE 7 11 30.17 1022 6 9.65604 0 0
10:56 am 10:56 Hazy 53 11.6 39 3.8 59 59 ENE 8 13 30.16 1021 5 8.0467 0 0
11:56 am 11:56 Hazy 53 11.6 40 4.4 62 62 NE 9 15 30.17 1022 6 9.65604 0 0
12:56 pm 12:56 Hazy 54 12.2 40 4.4 59 59 NE 6 9 30.17 1022 6 9.65604 0 0
1:56 pm 13:56 Hazy 55 12.7 42 5.5 62 62 NE 7 11 30.14 1021 6 9.65604 0 0
2:56 pm 14:56 Hazy 57 13.8 43 6.1 60 60 VRB 5 7 30.13 1020 5 8.0467 0 0
3:56 pm 15:56 Hazy 58 14.4 42 5.5 55 55 NE 7 11 30.12 1020 5 8.0467 0 0
4:56 pm 16:56 Hazy 58 14.4 43 6.1 58 58 NE 8 13 30.11 1020 5 8.0467 0 0
5:56 pm 17:56 Hazy 56 13.3 42 5.5 59 59 ENE 12 19 30.09 1019 5 8.0467 0 0
6:56 pm 18:56 Hazy 55 12.7 43 6.1 64 64 NNE 9 15 30.07 1018 5 8.0467 0 0
7:56 pm 19:56 Hazy 54 12.2 43 6.1 67 67 NE 10 17 30.05 1018 5 8.0467 0 0
8:56 pm 20:56 Mostly Cloudy with Haze 53 11.6 42 5.5 66 66 NE 13 20 30.03 1017 6 9.65604 0 0
9:56 pm 21:56 Cloudy with Haze 52 11.1 44 6.6 74 74 NE 7 11 30.04 1017 6 9.65604 0 0.0254
10:56 pm 22:56 Cloudy with Haze 51 10.5 46 7.7 83 83 NNE 6 9 30.04 1017 6 9.65604 0 0
11:56 pm 23:56 Cloudy with Haze 51 10.5 46 7.7 83 83 NNE 6 9 30.04 1017 6 9.65604 0 0.0254

Powered by AerisWeather